DW4238 Weather Reports


time (UTC)temp
F
wind
direction
speed
knots
gust
knots
rain 1hr
in
rain 24hr
in
rain mn
in
humidity
%
barometer
mb
20260506171114 78 308 8.7 18.2 0.00 0.00 0.00 83 1010.9
20260506170618 79 144 0.9 1.7 0.00 0.00 0.00 87 1010.6
20260506170023 79 144 0.0 1.7 0.00 0.00 0.00 87 1010.7
20260506165538 79 144 0.9 1.7 0.00 0.00 0.00 87 1010.7
20260506165138 79 136 0.9 1.7 0.00 0.00 0.00 87 1010.7
20260506164547 79 144 0.0 1.7 0.00 0.00 0.00 87 1010.6
20260506163631 79 140 0.0 0.0 0.00 0.00 0.00 87 1010.7
20260506163038 79 140 0.0 0.0 0.00 0.00 0.00 87 1010.8
20260506162543 79 140 0.0 0.0 0.00 0.00 0.00 87 1010.8
20260506161611 78 140 0.0 3.5 0.00 0.00 0.00 88 1010.8
20260506161053 78 140 2.6 3.5 0.00 0.00 0.00 88 1010.7
20260506160113 78 138 2.6 4.3 0.00 0.00 0.00 88 1010.1
20260506155526 78 194 0.0 0.9 0.00 0.00 0.00 88 1010.0
20260506154547 78 204 0.0 0.0 0.00 0.00 0.00 88 1009.7
20260506154035 78 204 0.0 0.0 0.00 0.00 0.00 88 1009.7
20260506153035 78 174 0.9 6.1 0.00 0.00 0.00 88 1009.7
20260506152546 78 173 1.7 6.1 0.00 0.00 0.00 88 1009.6
20260506151608 78 148 2.6 5.2 0.00 0.00 0.00 89 1009.5
20260506151110 78 148 2.6 5.2 0.00 0.00 0.00 89 1009.5
20260506150622 77 107 2.6 5.2 0.00 0.00 0.00 89 1009.4
20260506150036 77 107 2.6 4.3 0.00 0.00 0.00 89 1009.7
20260506145535 77 212 0.0 3.5 0.00 0.00 0.00 89 1009.7
20260506144534 77 228 0.9 1.7 0.00 0.00 0.00 89 1009.8
20260506144046 77 163 0.0 2.6 0.00 0.00 0.00 89 1009.7
20260506143105 77 164 3.5 6.1 0.00 0.00 0.00 89 1009.3
20260506142618 77 164 3.5 7.0 0.00 0.00 0.00 89 1009.2
20260506142121 77 150 2.6 6.1 0.00 0.00 0.00 89 1009.1
20260506141547 77 123 2.6 7.0 0.00 0.00 0.00 89 1009.0
20260506141101 77 140 3.5 7.8 0.00 0.00 0.00 90 1008.9
20260506135604 77 122 3.5 6.1 0.00 0.00 0.00 90 1008.8
20260506135115 76 135 3.5 6.1 0.00 0.00 0.00 90 1008.8
20260506134542 76 171 3.5 7.0 0.00 0.00 0.00 90 1008.9
20260506134046 76 163 4.3 7.8 0.00 0.00 0.00 90 1008.8
20260506133534 76 154 5.2 7.8 0.00 0.00 0.00 90 1008.9
20260506133139 76 148 5.2 8.7 0.00 0.00 0.00 90 1008.8
20260506132526 76 149 6.1 8.7 0.00 0.00 0.00 90 1008.8
20260506131549 76 150 4.3 7.8 0.00 0.00 0.00 90 1008.8
20260506131059 76 148 4.3 7.0 0.00 0.00 0.00 90 1008.8
20260506130558 76 147 3.5 4.3 0.00 0.00 0.00 90 1008.8
20260506130030 76 142 3.5 4.3 0.00 0.00 0.00 90 1008.8
20260506125531 76 138 3.5 5.2 0.00 0.00 0.00 90 1008.8
20260506124600 76 162 3.5 5.2 0.00 0.00 0.00 90 1008.7
20260506124043 76 153 3.5 6.1 0.00 0.00 0.00 90 1008.7
20260506123045 76 163 4.3 6.1 0.00 0.00 0.00 90 1008.7
20260506122600 76 162 4.3 5.2 0.00 0.00 0.00 90 1008.7
20260506122059 76 161 3.5 5.2 0.00 0.00 0.00 90 1008.6
20260506121529 76 151 3.5 5.2 0.00 0.00 0.00 90 1008.6
20260506121041 76 182 0.9 4.3 0.00 0.00 0.00 90 1008.6
20260506120059 76 182 2.6 4.3 0.00 0.00 0.00 90 1008.7
20260506115603 76 187 2.6 4.3 0.00 0.00 0.00 90 1008.6
20260506115115 76 188 2.6 4.3 0.00 0.00 0.00 90 1008.5
20260506114540 76 129 3.5 5.2 0.00 0.00 0.00 90 1008.5
20260506114048 76 163 3.5 5.2 0.00 0.00 0.00 90 1008.4
20260506113047 76 157 3.5 5.2 0.00 0.00 0.00 90 1008.2
20260506112559 76 179 2.6 4.3 0.00 0.00 0.00 90 1008.2
20260506112051 76 174 2.6 6.1 0.00 0.00 0.00 90 1008.2
20260506111533 76 167 4.3 6.1 0.00 0.00 0.00 90 1008.2
20260506111042 76 160 4.3 6.1 0.00 0.00 0.00 90 1008.1
20260506110100 76 180 1.7 5.2 0.00 0.00 0.00 90 1008.1
20260506105611 76 202 2.6 6.1 0.00 0.00 0.00 90 1008.1
20260506104543 76 187 4.3 7.0 0.00 0.00 0.00 90 1008.0
20260506104056 76 172 3.5 7.0 0.00 0.00 0.00 90 1008.0
20260506103119 76 188 3.5 7.0 0.00 0.00 0.00 90 1007.8
20260506102528 76 185 5.2 7.8 0.00 0.00 0.00 90 1007.7
20260506102121 76 185 3.5 7.8 0.00 0.00 0.00 90 1007.6
20260506101537 76 150 6.1 8.7 0.00 0.00 0.00 90 1007.5
20260506101047 76 172 4.3 8.7 0.00 0.00 0.00 90 1007.5
20260506100106 76 183 5.2 8.7 0.00 0.00 0.00 90 1007.2
20260506095548 76 186 5.2 10.4 0.00 0.00 0.00 90 1007.1
20260506094611 76 191 6.1 8.7 0.00 0.00 0.00 90 1007.1
20260506094122 76 155 7.0 9.6 0.00 0.00 0.00 89 1007.1
20260506093121 76 172 8.7 12.2 0.00 0.00 0.00 89 1007.1
20260506092631 76 170 6.1 8.7 0.00 0.00 0.00 90 1007.2
20260506092111 76 178 5.2 10.4 0.00 0.00 0.00 90 1007.2
20260506091539 76 196 6.1 10.4 0.00 0.00 0.00 90 1007.1
20260506091042 76 192 7.0 11.3 0.00 0.00 0.00 90 1007.0
20260506090045 76 179 6.1 10.4 0.00 0.00 0.00 90 1006.9
20260506085536 76 184 7.8 10.4 0.00 0.00 0.00 90 1006.9
20260506085123 76 174 7.8 10.4 0.00 0.00 0.00 90 1006.9
20260506084546 76 175 6.1 8.7 0.00 0.00 0.00 90 1006.9
20260506084035 76 170 6.1 8.7 0.00 0.00 0.00 90 1006.9
20260506083058 76 171 8.7 11.3 0.00 0.00 0.00 90 1006.8
20260506082608 76 171 8.7 13.0 0.00 0.00 0.00 90 1006.9
20260506082110 76 158 8.7 13.0 0.00 0.00 0.00 90 1006.9
20260506081534 76 178 7.8 13.0 0.00 0.00 0.00 90 1007.0
20260506081037 76 169 9.6 13.0 0.00 0.00 0.00 90 1006.9
20260506080108 76 139 7.0 14.8 0.00 0.00 0.00 90 1007.0
20260506073026 76 157 11.3 15.6 0.00 0.00 0.00 90 1007.2
20260506072539 76 200 10.4 15.6 0.00 0.00 0.00 90 1007.2
20260506071558 76 191 8.7 16.5 0.00 0.00 0.00 90 1007.3
20260506071116 76 147 11.3 16.5 0.00 0.00 0.00 90 1007.4
20260506070525 76 148 9.6 14.8 0.00 0.00 0.00 89 1007.5
20260506062024 76 158 9.6 14.8 0.00 0.00 0.00 89 1007.8
20260506061543 76 175 7.8 12.2 0.00 0.00 0.00 90 1007.9
20260506061052 76 148 8.7 12.2 0.00 0.00 0.00 89 1007.9
20260506060541 76 148 8.7 14.8 0.00 0.00 0.00 89 1007.9
20260506051040 76 150 9.6 13.0 0.00 0.00 0.00 89 1007.8
20260506050549 76 155 10.4 15.6 0.00 0.00 0.00 89 1007.8
20260506045053 76 162 8.7 12.2 0.00 0.00 0.00 89 1007.9
20260506044525 76 134 7.8 13.0 0.00 0.00 0.00 88 1007.9
20260506044028 77 162 8.7 13.0 0.00 0.00 0.00 88 1008.0
20260506043635 77 140 7.8 12.2 0.00 0.00 0.00 88 1008.0
20260506043046 77 157 8.7 13.9 0.00 0.00 0.00 87 1007.9
20260506042528 77 161 9.6 13.0 0.00 0.00 0.00 87 1008.0
20260506041601 77 154 9.6 13.0 0.00 0.00 0.00 88 1007.8
20260506041100 77 175 8.7 13.0 0.00 0.00 0.00 88 1007.8
20260506040610 77 169 7.0 11.3 0.00 0.00 0.00 88 1007.6
20260506040028 77 163 7.0 13.0 0.00 0.00 0.00 87 1007.5
20260506035539 77 166 7.8 13.0 0.00 0.00 0.00 87 1007.4
20260506034602 77 171 8.7 12.2 0.00 0.00 0.00 87 1007.2
20260506034112 77 184 8.7 12.2 0.00 0.00 0.00 86 1007.1
20260506033108 77 184 10.4 13.9 0.00 0.00 0.00 86 1006.9
20260506032549 78 150 11.3 15.6 0.00 0.00 0.00 86 1006.9
20260506032056 78 153 9.6 15.6 0.00 0.00 0.00 85 1006.9
20260506031526 78 165 10.4 16.5 0.00 0.00 0.00 85 1007.0
20260506031031 78 179 10.4 17.4 0.00 0.00 0.00 85 1006.9
20260506030035 78 181 8.7 13.9 0.00 0.00 0.00 85 1006.9
20260506025550 78 159 8.7 13.0 0.00 0.00 0.00 85 1006.9
20260506024545 78 165 7.0 14.8 0.00 0.00 0.00 84 1006.8
20260506024032 78 156 8.7 14.8 0.00 0.00 0.00 84 1006.8
20260506023053 78 172 7.0 13.0 0.00 0.00 0.00 84 1006.7
20260506022541 78 180 7.8 13.0 0.00 0.00 0.00 84 1006.6
20260506021601 78 186 7.8 10.4 0.00 0.00 0.00 83 1006.6
20260506021104 78 153 6.1 10.4 0.00 0.00 0.00 83 1006.6
20260506020043 79 167 7.8 13.0 0.00 0.00 0.00 83 1006.5
20260506015556 79 180 7.8 13.0 0.00 0.00 0.00 83 1006.5
20260506015054 79 171 7.0 10.4 0.00 0.00 0.00 83 1006.4
20260506014524 79 180 7.8 10.4 0.00 0.00 0.00 83 1006.2
20260506014036 79 163 7.8 12.2 0.00 0.00 0.00 83 1006.2
20260506013057 79 177 7.8 12.2 0.00 0.00 0.00 82 1006.0
20260506012600 79 175 7.8 13.9 0.00 0.00 0.00 82 1005.8
20260506012110 79 168 8.7 13.0 0.00 0.00 0.00 82 1005.8
20260506011528 79 165 8.7 14.8 0.00 0.00 0.00 82 1005.6
20260506011043 79 182 8.7 16.5 0.00 0.00 0.00 82 1005.6
20260506010104 80 152 11.3 14.8 0.00 0.00 0.00 81 1005.5
20260506005614 80 157 10.4 14.8 0.00 0.00 0.00 81 1005.4
20260506005116 80 166 9.6 13.9 0.00 0.00 0.00 81 1005.4
20260506004543 80 175 7.8 14.8 0.00 0.00 0.00 80 1005.4
20260506004024 80 146 9.6 14.8 0.00 0.00 0.00 80 1005.4
20260506003614 81 155 9.6 13.0 0.00 0.00 0.00 80 1005.3
20260506003041 81 155 9.6 13.0 0.00 0.00 0.00 80 1005.3
20260506002544 81 171 8.7 13.0 0.00 0.00 0.00 80 1005.4
20260506001608 81 172 9.6 15.6 0.00 0.00 0.00 79 1005.4
20260506001118 81 161 7.8 9.6 0.00 0.00 0.00 80 1005.3
20260506000555 81 175 6.1 15.6 0.00 0.00 0.00 80 1005.5
20260506000024 81 170 10.4 15.6 0.00 0.00 0.00 79 1005.5
20260505235535 81 158 6.1 14.8 0.00 0.00 0.00 80 1005.5
20260505234555 81 178 9.6 14.8 0.00 0.00 0.00 79 1005.3
20260505234058 81 165 10.4 15.6 0.00 0.00 0.00 79 1005.3
20260505233100 81 161 10.4 15.6 0.00 0.00 0.00 79 1005.3
20260505232603 82 160 11.3 15.6 0.00 0.00 0.00 78 1005.1
20260505231606 82 149 9.6 15.6 0.00 0.00 0.00 78 1005.3
20260505231034 82 158 8.7 13.0 0.00 0.00 0.00 78 1005.3
20260505225526 82 166 12.2 13.9 0.00 0.00 0.00 77 1005.1
20260505225133 83 166 7.8 14.8 0.00 0.00 0.00 77 1005.0
20260505224537 83 182 10.4 14.8 0.00 0.00 0.00 78 1004.9
20260505224042 83 180 7.8 14.8 0.00 0.00 0.00 78 1005.1
20260505223608 83 146 11.3 14.8 0.00 0.00 0.00 77 1005.1
20260505223034 83 205 11.3 15.6 0.00 0.00 0.00 74 1005.2
20260505222541 84 182 11.3 18.2 0.00 0.00 0.00 74 1005.3
20260505221601 84 150 9.6 17.4 0.00 0.00 0.00 74 1005.0
20260505221049 84 184 7.0 13.0 0.00 0.00 0.00 75 1005.0
20260505220050 84 167 10.4 19.1 0.00 0.00 0.00 75 1005.0
20260505215602 84 173 8.7 12.2 0.00 0.00 0.00 75 1005.1
20260505214539 84 185 10.4 13.9 0.00 0.00 0.00 74 1005.2
20260505214042 84 192 9.6 13.9 0.00 0.00 0.00 74 1005.3
20260505213049 85 196 10.4 18.2 0.00 0.00 0.00 73 1005.2
20260505212559 85 164 8.7 18.2 0.00 0.00 0.00 73 1005.4
20260505211621 84 191 11.3 14.8 0.00 0.00 0.00 73 1005.5
20260505211032 84 184 9.6 15.6 0.00 0.00 0.00 74 1005.6
20260505210053 85 201 8.7 13.0 0.00 0.00 0.00 74 1005.8
20260505205617 85 178 9.6 15.6 0.00 0.00 0.00 74 1005.9
20260505204617 84 192 10.4 15.6 0.00 0.00 0.00 74 1006.0
20260505204031 84 195 9.6 13.0 0.00 0.00 0.00 75 1006.0
20260505203054 84 181 9.6 13.9 0.00 0.00 0.00 75 1006.3
20260505202543 84 157 9.6 14.8 0.00 0.00 0.00 76 1006.3
20260505201604 84 207 9.6 15.6 0.00 0.00 0.00 75 1006.4
20260505201053 84 162 10.4 14.8 0.00 0.00 0.00 73 1006.5
20260505200052 84 195 8.7 14.8 0.00 0.00 0.00 76 1006.6
20260505195533 83 227 11.3 14.8 0.00 0.00 0.00 76 1006.6
20260505194601 83 170 8.7 15.6 0.00 0.00 0.00 76 1006.7
20260505194108 84 198 11.3 15.6 0.00 0.00 0.00 74 1006.7
20260505193115 84 219 8.7 18.2 0.00 0.00 0.00 75 1006.9
20260505192557 84 182 9.6 16.5 0.00 0.00 0.00 75 1006.8
20260505192103 84 184 8.7 14.8 0.00 0.00 0.00 76 1007.0
20260505191527 82 178 11.3 14.8 0.00 0.00 0.00 77 1007.0
20260505191140 82 205 10.4 13.9 0.00 0.00 0.00 76 1007.1
20260505190557 83 200 9.6 13.0 0.00 0.00 0.00 76 1007.1
20260505190030 83 184 9.6 17.4 0.00 0.00 0.00 76 1007.1
20260505185540 83 225 8.7 17.4 0.00 0.00 0.00 76 1007.1
20260505184601 83 199 9.6 15.6 0.00 0.00 0.00 77 1007.3
20260505184118 83 182 11.3 17.4 0.00 0.00 0.00 76 1007.3
20260505183116 82 205 7.8 13.0 0.00 0.00 0.00 78 1007.5
20260505182621 81 184 7.0 13.9 0.00 0.00 0.00 79 1007.5
20260505181622 81 257 11.3 13.9 0.00 0.00 0.00 77 1007.6
20260505181025 82 227 8.7 15.6 0.00 0.00 0.00 78 1007.6
20260505180042 81 213 10.4 19.1 0.00 0.00 0.00 78 1007.6
20260505175553 81 207 11.3 18.2 0.00 0.00 0.00 78 1007.6
20260505175055 81 191 10.4 17.4 0.00 0.00 0.00 78 1007.7
20260505174525 81 219 8.7 13.0 0.00 0.00 0.00 79 1007.8
20260505174035 80 164 9.6 13.0 0.00 0.00 0.00 79 1007.9
20260505173055 81 232 10.4 18.2 0.00 0.00 0.00 77 1007.8
20260505172556 81 211 9.6 18.2 0.00 0.00 0.00 79 1007.8
20260505171624 81 202 12.2 19.1 0.00 0.00 0.00 78 1007.9